Location: *
(51.0333°S, 178.4667°E)
Time: 15:56:34
(UTC+00:00)

STARLINK - Pass Details

Date: 15 November 2019
Orbit: 529 x 530 km, 53.0° (Epoch: 12 December)

Event Time Altitude Azimuth Distance (km) Brightness Sun altitude
Rises 08:10:58 0° 286° (WNW) 2,672 7.7 -5.6°
Reaches altitude 10° 08:13:10 10° 285° (WNW) 1,786 6.8 -5.8°
Maximum altitude 08:17:14 84° 197° (SSW) 544 3.7 -6.3°
Drops below altitude 10° 08:21:20 10° 107° (ESE) 1,796 5.9 -6.8°
Sets 08:23:33 0° 106° (ESE) 2,689 6.8 -7.1°
